Location: ?p Thanh B�nh
(16.5833°N, 107.5333°E)
Time: 09:56:16
(UTC+00:00)

ALOS - Pass Details

Date: 29 October 2020
Orbit: 683 x 685 km, 97.9° (Epoch: 24 November)

Event Time Altitude Azimuth Distance (km) Brightness Sun altitude
Rises 22:17:28 0° 341° (NNW) 3,039 5.3 -7.7°
Reaches altitude 10° 22:20:57 10° 313° (NW) 2,123 4.3 -6.9°
Maximum altitude 22:22:57 13° 287° (WNW) 1,940 3.9 -6.4°
Drops below altitude 10° 22:24:58 10° 261° (W) 2,122 4.2 -5.9°
Sets 22:28:27 0° 233° (SW) 3,036 5.2 -5.1°
